Location: Gairloch Mountain Observatory
(46.1383°N, 60.9640°W)
Time: 14:31:19
(UTC-03:00)

CENTAUR R/B - Visible Passes

Search period start: 26 April 2018 00:00
Search period end: 06 May 2018 00:00
Orbit: 805 x 1383 km, 63.5° (Epoch: 18 April)

Date Brightness Start Highest point End Pass type
(mag) Time Alt. Az. Time Alt. Az. Time Alt. Az.
26 Apr 4.8 03:19:25 10° ESE 03:21:14 11° E 03:23:07 10° E visible
26 Apr 2.8 05:04:22 10° SSW 05:10:18 68° ESE 05:17:11 10° NE visible
27 Apr 3.5 04:16:59 11° S 04:22:19 41° ESE 04:28:37 10° NE visible
28 Apr 4.2 03:30:28 12° SSE 03:34:32 24° ESE 03:39:42 10° ENE visible
28 Apr 2.7 05:18:20 10° SW 05:24:25 72° NW 05:31:29 10° NE visible
29 Apr 4.6 02:44:10 10° SE 02:46:57 13° ESE 02:49:53 10° ENE visible
29 Apr 2.7 04:31:05 15° SSW 04:36:09 76° SE 04:43:06 10° NE visible
30 Apr 3.2 03:44:27 22° S 03:48:08 46° ESE 03:54:36 10° NE visible
01 May 3.8 02:57:47 21° SSE 03:00:18 28° ESE 03:05:47 10° NE visible
01 May 2.8 04:44:57 14° SW 04:50:19 65° NW 04:57:24 10° NE visible
02 May 4.4 02:11:04 14° ESE 02:12:40 16° ESE 02:16:19 10° ENE visible
02 May 2.5 03:58:15 25° SSW 04:02:01 84° SE 04:09:02 10° NE visible
03 May 2.9 03:11:29 33° S 03:13:57 52° ESE 03:20:34 10° NE visible
03 May 3.4 04:58:55 10° WSW 05:04:49 41° NW 05:11:37 10° NNE visible
04 May 3.5 02:24:41 28° SE 02:26:04 31° ESE 02:31:51 10° NE visible
04 May 2.9 04:11:51 20° WSW 04:16:15 59° NW 04:23:18 10° NE visible
05 May 4.2 01:37:51 18° ESE 01:38:24 18° ESE 01:42:36 10° ENE visible
05 May 2.5 03:25:01 35° SW 03:27:54 88° NW 03:34:58 10° NE visible
